Regional Weather Roundup
Issued by NWS Kansas City/Pleasant Hill, MO

Home | Current Version | Previous Version | Graphics & Text | Print | Product List | Glossary Off
Versions: 1 2 3 4 5 6 7 8 9 10 11 12 13 14 15 16 17 18 19 20 21 22 23 24 25 26 27 28

000
ASUS43 KEAX 291910
RWREAX

WEATHER ROUNDUP FOR EASTERN KANSAS AND NORTHWEST MISSOURI
NATIONAL WEATHER SERVICE KANSAS CITY/PLEASANT HILL MO
200 PM CDT MON AUG 29 2016

KSZ040-057-103>105-MOZ028-029-037-043-292000-
...KANSAS CITY METROPOLITAN AREA...

CITY           SKY/WX    TMP DP  RH WIND       PRES   REMARKS
K.C. INTL      PTSUNNY   86  69  56 CALM      30.18F HX  90
K.C. DOWNTOWN  PTSUNNY   85  71  63 VRB5      30.16F HX  90
LEES SUMMIT    MOSUNNY   87  70  56 E9        30.18F HX  92
OLATHE - IXD   MOSUNNY   81  70  69 S7        30.19F
OLATHE - OJC   MOSUNNY   82  72  71 W6        30.18F
LAWRENCE       PTSUNNY   89  71  55 E7        30.16F HX  95

$$

MOZ001>008-011>017-020>025-030>033-038>040-044>046-053-054-292000-
...NORTHERN AND CENTRAL MISSOURI...

CITY           SKY/WX    TMP DP  RH WIND       PRES   REMARKS
ST. JOSEPH     CLOUDY    87  73  62 CALM      30.17F HX  94
MOSBY          PTCLDY    88  68  51 CALM      30.17F HX  91
WHITEMAN AFB   PTSUNNY   88  73  60 N2        30.16F HX  96
CLINTON        CLOUDY    90  72  55 SE3       30.18F HX  96
SEDALIA        MOSUNNY   89  72  56 CALM      30.19F HX  96
WARSAW         NOT AVBL
CHILLICOTHE      N/A     87  75  67 CALM      30.18F HX  96
KIRKSVILLE     PTSUNNY   87  73  62 E7        30.19F HX  94

$$

MOZ041-047>049-056>058-063>065-088>090-097-292000-
...EASTERN AND SOUTHERN MISSOURI...

CITY           SKY/WX    TMP DP  RH WIND       PRES   REMARKS
ST. LOUIS INTL MOSUNNY   93  69  45 SE6       30.18F HX  98
SPIRIT OF STL  PTSUNNY   88  76  67 W5        30.16F HX  99
COLUMBIA       CLOUDY    90  73  57 N5        30.18F HX  98
JEFFERSON CITY MOSUNNY   89  71  55 SE5       30.16F HX  95
ROLLA          MOSUNNY   89  69  51 E7        30.18F HX  93
OSAGE BEACH    MOSUNNY   87  73  62 NE3       30.18F HX  94
SPRINGFIELD    MOSUNNY   93  68  43 N9        30.16F HX  97
BRANSON        MOSUNNY   90  68  48 E8        30.18F HX  93
JOPLIN         MOSUNNY   90  69  50 E5        30.15F HX  94
WEST PLAINS    MOSUNNY   90  71  53 NE8       30.19F HX  96

$$

IAZ060-094-KSZ022-034>040-054-083-096-NEZ052-066-093-292000-
...KANSAS...SOUTHEAST NEBRASKA AND IOWA...

CITY           SKY/WX    TMP DP  RH WIND       PRES   REMARKS
TOPEKA         PTSUNNY   86  70  58 E6        30.16F HX  90
MANHATTAN      PTSUNNY   86  71  60 CALM      30.15F HX  91
EMPORIA        RAIN      76  70  82 S10G21    30.18F
CHANUTE        CLOUDY    85  74  69 S7        30.15F HX  92
WICHITA        CLOUDY    86  69  56 SE12      30.15F HX  90
OMAHA          CLOUDY    86  72  62 SE7       30.17F HX  92
LINCOLN        PTSUNNY   87  73  62 N7        30.18F HX  94
FALLS CITY     SUNNY     89  72  56 SE7       30.16F HX  96
LAMONI         MOSUNNY   86  73  65 S6        30.18F HX  93
DES MOINES     CLOUDY    85  73  67 S5        30.18F HX  91

$$





USA.gov is the U.S. government's official web portal to all federal, state and local government web resources and services.